| time (UTC) | temp F | wind direction | speed MPH | gust MPH | rain 1hr in | rain 24hr in | rain mn in | humidity % | barometer mb |
| 20260507132719 | 48 | 151 | 2.0 | 7.0 | 0.00 | 0.00 | 0.00 | 53 | 1016.1 |
| 20260507132215 | 48 | 241 | 3.0 | 7.0 | 0.00 | 0.00 | 0.00 | 54 | 1015.8 |
| 20260507131712 | 48 | 217 | 3.0 | 5.0 | 0.00 | 0.00 | 0.00 | 54 | 1015.7 |
| 20260507131209 | 48 | 207 | 3.0 | 6.0 | 0.00 | 0.00 | 0.00 | 54 | 1016.1 |
| 20260507130706 | 47 | 196 | 4.0 | 5.0 | 0.00 | 0.00 | 0.00 | 56 | 1015.9 |
| 20260507130204 | 47 | 269 | 2.0 | 5.0 | 0.00 | 0.00 | 0.00 | 55 | 1015.8 |
| 20260507125702 | 48 | 227 | 4.0 | 4.0 | 0.00 | 0.00 | 0.00 | 57 | 1015.7 |
| 20260507125159 | 46 | 203 | 1.0 | 3.0 | 0.00 | 0.00 | 0.00 | 59 | 1015.6 |
| 20260507124655 | 45 | 193 | 4.0 | 5.0 | 0.00 | 0.00 | 0.00 | 60 | 1015.8 |
| 20260507124153 | 45 | 180 | 4.0 | 5.0 | 0.00 | 0.00 | 0.00 | 59 | 1015.9 |
| 20260507123651 | 45 | 289 | 1.0 | 3.0 | 0.00 | 0.00 | 0.00 | 62 | 1015.6 |
| 20260507123148 | 45 | 181 | 1.0 | 3.0 | 0.00 | 0.00 | 0.00 | 64 | 1015.7 |
| 20260507122643 | 44 | 181 | 1.0 | 4.0 | 0.00 | 0.00 | 0.00 | 68 | 1015.6 |
| 20260507122139 | 43 | 181 | 2.0 | 4.0 | 0.00 | 0.00 | 0.00 | 68 | 1015.4 |
| 20260507121635 | 43 | 178 | 1.0 | 4.0 | 0.00 | 0.00 | 0.00 | 68 | 1015.4 |
| 20260507121131 | 43 | 136 | 2.0 | 3.0 | 0.00 | 0.00 | 0.00 | 68 | 1015.2 |
| 20260507120628 | 43 | 200 | 1.0 | 3.0 | 0.00 | 0.00 | 0.00 | 67 | 1015.5 |
| 20260507120125 | 43 | 117 | 0.0 | 2.0 | 0.00 | 0.00 | 0.00 | 68 | 1015.4 |
| 20260507115621 | 42 | 134 | 0.0 | 2.0 | 0.00 | 0.00 | 0.00 | 70 | 1015.5 |
| 20260507115117 | 41 | 89 | 0.0 | 2.0 | 0.00 | 0.00 | 0.00 | 73 | 1015.5 |
| 20260507114613 | 40 | 227 | 2.0 | 3.0 | 0.00 | 0.00 | 0.00 | 74 | 1015.6 |
| 20260507114110 | 40 | 125 | 2.0 | 2.0 | 0.00 | 0.00 | 0.00 | 78 | 1015.4 |
| 20260507113608 | 38 | 168 | 1.0 | 4.0 | 0.00 | 0.00 | 0.00 | 78 | 1015.3 |
| 20260507113104 | 37 | 157 | 1.0 | 3.0 | 0.00 | 0.00 | 0.00 | 81 | 1015.4 |
| 20260507112603 | 37 | 116 | 0.0 | 3.0 | 0.00 | 0.00 | 0.00 | 83 | 1015.3 |
| 20260507112059 | 36 | 153 | 2.0 | 3.0 | 0.00 | 0.00 | 0.00 | 85 | 1015.3 |
| 20260507111556 | 35 | 103 | 1.0 | 2.0 | 0.00 | 0.00 | 0.00 | 88 | 1015.2 |
| 20260507111052 | 35 | 120 | 2.0 | 3.0 | 0.00 | 0.00 | 0.00 | 89 | 1015.4 |
| 20260507110549 | 33 | 82 | 1.0 | 3.0 | 0.00 | 0.00 | 0.00 | 89 | 1015.3 |
| 20260507110045 | 32 | 135 | 0.0 | 2.0 | 0.00 | 0.00 | 0.00 | 89 | 1015.5 |
| 20260507105542 | 32 | 101 | 0.0 | 2.0 | 0.00 | 0.00 | 0.00 | 88 | 1015.4 |
| 20260507105038 | 32 | 79 | 1.0 | 2.0 | 0.00 | 0.00 | 0.00 | 88 | 1015.6 |
| 20260507104536 | 32 | 65 | 0.0 | 2.0 | 0.00 | 0.00 | 0.00 | 87 | 1015.4 |
| 20260507104032 | 33 | 89 | 0.0 | 1.0 | 0.00 | 0.00 | 0.00 | 87 | 1015.4 |
| 20260507103528 | 33 | 246 | 0.0 | 1.0 | 0.00 | 0.00 | 0.00 | 88 | 1015.5 |
| 20260507103025 | 33 | 60 | 0.0 | 1.0 | 0.00 | 0.00 | 0.00 | 88 | 1015.3 |
| 20260507102522 | 33 | 76 | 0.0 | 2.0 | 0.00 | 0.00 | 0.00 | 88 | 1015.4 |
| 20260507102018 | 33 | 102 | 0.0 | 2.0 | 0.00 | 0.00 | 0.00 | 87 | 1015.4 |
| 20260507101513 | 33 | 53 | 0.0 | 2.0 | 0.00 | 0.00 | 0.00 | 87 | 1015.2 |
| 20260507101010 | 34 | 130 | 0.0 | 2.0 | 0.00 | 0.00 | 0.00 | 86 | 1015.5 |
| 20260507100508 | 34 | 291 | 0.0 | 2.0 | 0.00 | 0.00 | 0.00 | 86 | 1015.5 |
| 20260507100006 | 34 | 174 | 0.0 | 2.0 | 0.00 | 0.00 | 0.00 | 86 | 1015.4 |
| 20260507095503 | 35 | 57 | 0.0 | 2.0 | 0.00 | 0.00 | 0.00 | 85 | 1015.5 |
| 20260507094959 | 35 | 287 | 0.0 | 2.0 | 0.00 | 0.00 | 0.00 | 85 | 1015.5 |
| 20260507094455 | 35 | 319 | 0.0 | 2.0 | 0.00 | 0.00 | 0.00 | 85 | 1015.4 |
| 20260507093953 | 35 | 126 | 0.0 | 2.0 | 0.00 | 0.00 | 0.00 | 84 | 1015.4 |
| 20260507093450 | 35 | 166 | 0.0 | 2.0 | 0.00 | 0.00 | 0.00 | 84 | 1015.4 |
| 20260507092948 | 35 | 131 | 0.0 | 2.0 | 0.00 | 0.00 | 0.00 | 83 | 1015.7 |
| 20260507092445 | 35 | 186 | 1.0 | 2.0 | 0.00 | 0.00 | 0.00 | 83 | 1015.5 |
| 20260507091941 | 35 | 76 | 0.0 | 2.0 | 0.00 | 0.00 | 0.00 | 83 | 1015.5 |
| 20260507091438 | 36 | 329 | 0.0 | 2.0 | 0.00 | 0.00 | 0.00 | 82 | 1015.8 |
| 20260507090934 | 36 | 212 | 0.0 | 2.0 | 0.00 | 0.00 | 0.00 | 82 | 1015.6 |
| 20260507090430 | 36 | 209 | 0.0 | 2.0 | 0.00 | 0.00 | 0.00 | 82 | 1015.5 |
| 20260507085927 | 36 | 278 | 0.0 | 2.0 | 0.00 | 0.00 | 0.00 | 82 | 1015.6 |
| 20260507085424 | 36 | 275 | 0.0 | 2.0 | 0.00 | 0.00 | 0.00 | 82 | 1015.4 |
| 20260507084921 | 36 | 200 | 0.0 | 2.0 | 0.00 | 0.00 | 0.00 | 82 | 1015.4 |
| 20260507084418 | 36 | 210 | 0.0 | 2.0 | 0.00 | 0.00 | 0.00 | 82 | 1015.5 |
| 20260507083915 | 36 | 278 | 0.0 | 2.0 | 0.00 | 0.00 | 0.00 | 82 | 1015.7 |
| 20260507083411 | 35 | 66 | 0.0 | 2.0 | 0.00 | 0.00 | 0.00 | 82 | 1015.7 |
| 20260507082908 | 35 | 73 | 1.0 | 2.0 | 0.00 | 0.00 | 0.00 | 81 | 1015.7 |
| 20260507082403 | 36 | 107 | 0.0 | 2.0 | 0.00 | 0.00 | 0.00 | 80 | 1015.9 |
| 20260507081901 | 36 | 117 | 1.0 | 2.0 | 0.00 | 0.00 | 0.00 | 80 | 1015.6 |
| 20260507081357 | 37 | 135 | 0.0 | 2.0 | 0.00 | 0.00 | 0.00 | 80 | 1015.7 |
| 20260507080853 | 36 | 224 | 0.0 | 2.0 | 0.00 | 0.00 | 0.00 | 80 | 1015.5 |
| 20260507080350 | 36 | 124 | 0.0 | 2.0 | 0.00 | 0.00 | 0.00 | 81 | 1015.5 |
| 20260507075845 | 36 | 101 | 1.0 | 2.0 | 0.00 | 0.00 | 0.00 | 81 | 1015.6 |
| 20260507075341 | 36 | 89 | 0.0 | 2.0 | 0.00 | 0.00 | 0.00 | 80 | 1015.4 |
| 20260507074838 | 37 | 185 | 0.0 | 2.0 | 0.00 | 0.00 | 0.00 | 79 | 1015.4 |
| 20260507074335 | 37 | 144 | 0.0 | 2.0 | 0.00 | 0.00 | 0.00 | 79 | 1015.4 |
| 20260507073832 | 37 | 198 | 0.0 | 2.0 | 0.00 | 0.00 | 0.00 | 79 | 1015.4 |
| 20260507073329 | 36 | 130 | 0.0 | 2.0 | 0.00 | 0.00 | 0.00 | 81 | 1015.5 |
| 20260507072826 | 36 | 146 | 0.0 | 1.0 | 0.00 | 0.00 | 0.00 | 81 | 1015.3 |
| 20260507072324 | 36 | 224 | 0.0 | 1.0 | 0.00 | 0.00 | 0.00 | 80 | 1015.5 |
| 20260507071821 | 36 | 66 | 0.0 | 2.0 | 0.00 | 0.00 | 0.00 | 81 | 1015.4 |
| 20260507071318 | 36 | 115 | 1.0 | 2.0 | 0.00 | 0.00 | 0.00 | 81 | 1015.5 |
| 20260507070814 | 35 | 89 | 0.0 | 2.0 | 0.00 | 0.00 | 0.00 | 81 | 1015.5 |
| 20260507070312 | 36 | 60 | 0.0 | 2.0 | 0.00 | 0.00 | 0.00 | 81 | 1015.7 |
| 20260507065808 | 36 | 72 | 0.0 | 2.0 | 0.00 | 0.00 | 0.00 | 80 | 1015.7 |
| 20260507065306 | 36 | 186 | 0.0 | 1.0 | 0.00 | 0.00 | 0.00 | 79 | 1015.6 |
| 20260507064802 | 36 | 48 | 0.0 | 2.0 | 0.00 | 0.00 | 0.00 | 78 | 1015.7 |
| 20260507064301 | 36 | 60 | 0.0 | 2.0 | 0.00 | 0.00 | 0.00 | 77 | 1015.8 |
| 20260507063758 | 36 | 208 | 0.0 | 2.0 | 0.00 | 0.00 | 0.00 | 76 | 1015.9 |
| 20260507063255 | 37 | 129 | 0.0 | 2.0 | 0.00 | 0.00 | 0.00 | 76 | 1015.7 |
| 20260507062752 | 37 | 155 | 1.0 | 2.0 | 0.00 | 0.00 | 0.00 | 74 | 1015.9 |
| 20260507062249 | 38 | 184 | 0.0 | 2.0 | 0.00 | 0.00 | 0.00 | 72 | 1015.8 |
| 20260507061747 | 38 | 149 | 0.0 | 3.0 | 0.00 | 0.00 | 0.00 | 74 | 1015.9 |
| 20260507061244 | 38 | 150 | 2.0 | 2.0 | 0.00 | 0.00 | 0.00 | 73 | 1015.9 |
| 20260507060743 | 38 | 142 | 2.0 | 2.0 | 0.00 | 0.00 | 0.00 | 73 | 1016.0 |
| 20260507060239 | 38 | 147 | 0.0 | 2.0 | 0.00 | 0.00 | 0.00 | 71 | 1015.9 |
| 20260507055735 | 39 | 143 | 2.0 | 3.0 | 0.00 | 0.00 | 0.00 | 71 | 1015.8 |
| 20260507055231 | 39 | 167 | 1.0 | 2.0 | 0.00 | 0.00 | 0.00 | 71 | 1015.9 |
| 20260507054727 | 38 | 194 | 0.0 | 3.0 | 0.00 | 0.00 | 0.00 | 71 | 1015.7 |
| 20260507054224 | 38 | 140 | 2.0 | 3.0 | 0.00 | 0.00 | 0.00 | 71 | 1016.0 |
| 20260507053721 | 39 | 144 | 3.0 | 3.0 | 0.00 | 0.00 | 0.00 | 71 | 1016.0 |
| 20260507053219 | 39 | 144 | 2.0 | 3.0 | 0.00 | 0.00 | 0.00 | 70 | 1015.8 |
| 20260507052718 | 39 | 118 | 1.0 | 3.0 | 0.00 | 0.00 | 0.00 | 69 | 1016.0 |
| 20260507052213 | 39 | 117 | 1.0 | 3.0 | 0.00 | 0.00 | 0.00 | 69 | 1015.7 |
| 20260507051712 | 39 | 143 | 1.0 | 2.0 | 0.00 | 0.00 | 0.00 | 70 | 1016.1 |
| 20260507051208 | 39 | 137 | 1.0 | 3.0 | 0.00 | 0.00 | 0.00 | 69 | 1015.9 |
| 20260507050705 | 39 | 143 | 2.0 | 3.0 | 0.00 | 0.00 | 0.00 | 68 | 1016.1 |
| 20260507050202 | 39 | 115 | 2.0 | 3.0 | 0.00 | 0.00 | 0.00 | 69 | 1016.0 |
| 20260507045659 | 40 | 127 | 2.0 | 3.0 | 0.00 | 0.00 | 0.00 | 68 | 1015.8 |
| 20260507045156 | 40 | 121 | 2.0 | 3.0 | 0.00 | 0.00 | 0.00 | 68 | 1016.2 |
| 20260507044652 | 39 | 113 | 0.0 | 2.0 | 0.00 | 0.00 | 0.00 | 66 | 1016.1 |
| 20260507044149 | 40 | 119 | 0.0 | 3.0 | 0.00 | 0.00 | 0.00 | 66 | 1016.0 |
| 20260507043645 | 40 | 141 | 1.0 | 2.0 | 0.00 | 0.00 | 0.00 | 66 | 1016.1 |
| 20260507043142 | 40 | 154 | 0.0 | 2.0 | 0.00 | 0.00 | 0.00 | 67 | 1015.9 |
| 20260507042638 | 40 | 103 | 0.0 | 2.0 | 0.00 | 0.00 | 0.00 | 65 | 1016.0 |
| 20260507042134 | 40 | 125 | 2.0 | 3.0 | 0.00 | 0.00 | 0.00 | 66 | 1015.9 |
| 20260507041631 | 40 | 80 | 0.0 | 2.0 | 0.00 | 0.00 | 0.00 | 66 | 1016.0 |
| 20260507041127 | 40 | 79 | 0.0 | 2.0 | 0.00 | 0.00 | 0.00 | 66 | 1015.8 |
| 20260507040624 | 40 | 158 | 2.0 | 2.0 | 0.00 | 0.00 | 0.00 | 65 | 1015.9 |
| 20260507040121 | 41 | 142 | 0.0 | 2.0 | 0.00 | 0.00 | 0.00 | 65 | 1015.9 |
| 20260507035616 | 41 | 113 | 0.0 | 3.0 | 0.00 | 0.00 | 0.00 | 66 | 1015.9 |
| 20260507035113 | 41 | 129 | 2.0 | 3.0 | 0.00 | 0.00 | 0.00 | 65 | 1016.1 |
| 20260507034610 | 41 | 113 | 1.0 | 2.0 | 0.00 | 0.00 | 0.00 | 65 | 1015.8 |
| 20260507034107 | 41 | 146 | 1.0 | 3.0 | 0.00 | 0.00 | 0.00 | 65 | 1015.9 |
| 20260507033606 | 41 | 60 | 0.0 | 2.0 | 0.00 | 0.00 | 0.00 | 64 | 1015.9 |
| 20260507033102 | 41 | 81 | 1.0 | 2.0 | 0.00 | 0.00 | 0.00 | 62 | 1015.9 |
| 20260507032600 | 42 | 81 | 0.0 | 2.0 | 0.00 | 0.00 | 0.00 | 61 | 1016.0 |
| 20260507032056 | 43 | 109 | 0.0 | 2.0 | 0.00 | 0.00 | 0.00 | 59 | 1016.1 |
| 20260507031552 | 43 | 235 | 0.0 | 2.0 | 0.00 | 0.00 | 0.00 | 58 | 1015.8 |
| 20260507031049 | 43 | 0 | 0.0 | 2.0 | 0.00 | 0.00 | 0.00 | 58 | 1015.9 |
| 20260507030546 | 43 | 2 | 0.0 | 2.0 | 0.00 | 0.00 | 0.00 | 58 | 1015.9 |
| 20260507030044 | 43 | 106 | 1.0 | 2.0 | 0.00 | 0.00 | 0.00 | 60 | 1016.0 |
| 20260507025540 | 42 | 198 | 2.0 | 2.0 | 0.00 | 0.00 | 0.00 | 60 | 1015.8 |
| 20260507025038 | 42 | 155 | 0.0 | 2.0 | 0.00 | 0.00 | 0.00 | 60 | 1015.8 |
| 20260507024536 | 43 | 135 | 0.0 | 2.0 | 0.00 | 0.00 | 0.00 | 58 | 1015.7 |
| 20260507024032 | 44 | 184 | 0.0 | 2.0 | 0.00 | 0.00 | 0.00 | 57 | 1015.7 |
| 20260507023528 | 44 | 223 | 0.0 | 3.0 | 0.00 | 0.00 | 0.00 | 55 | 1015.9 |
| 20260507023026 | 45 | 170 | 1.0 | 2.0 | 0.00 | 0.00 | 0.00 | 55 | 1015.7 |
| 20260507022522 | 46 | 140 | 1.0 | 2.0 | 0.00 | 0.00 | 0.00 | 54 | 1015.6 |
| 20260507022018 | 46 | 187 | 0.0 | 4.0 | 0.00 | 0.00 | 0.00 | 51 | 1015.7 |
| 20260507021514 | 46 | 114 | 1.0 | 3.0 | 0.00 | 0.00 | 0.00 | 51 | 1015.5 |
| 20260507021011 | 47 | 205 | 0.0 | 6.0 | 0.00 | 0.00 | 0.00 | 51 | 1015.6 |
| 20260507020508 | 47 | 301 | 2.0 | 6.0 | 0.00 | 0.00 | 0.00 | 49 | 1015.2 |
| 20260507020005 | 47 | 240 | 3.0 | 4.0 | 0.00 | 0.00 | 0.00 | 49 | 1015.3 |
| 20260507015503 | 47 | 129 | 2.0 | 6.0 | 0.00 | 0.00 | 0.00 | 49 | 1015.4 |
| 20260507015000 | 47 | 276 | 2.0 | 5.0 | 0.00 | 0.00 | 0.00 | 48 | 1015.4 |
| 20260507014456 | 47 | 323 | 2.0 | 5.0 | 0.00 | 0.00 | 0.00 | 49 | 1015.3 |
| 20260507013952 | 47 | 210 | 0.0 | 2.0 | 0.00 | 0.00 | 0.00 | 50 | 1015.2 |
| 20260507013449 | 48 | 252 | 1.0 | 6.0 | 0.00 | 0.00 | 0.00 | 48 | 1015.0 |
| 20260507012947 | 48 | 181 | 1.0 | 4.0 | 0.00 | 0.00 | 0.00 | 48 | 1014.9 |
| 20260507012443 | 49 | 262 | 3.0 | 7.0 | 0.00 | 0.00 | 0.00 | 47 | 1014.9 |
| 20260507011940 | 49 | 288 | 2.0 | 5.0 | 0.00 | 0.00 | 0.00 | 47 | 1015.0 |
| 20260507011437 | 49 | 216 | 0.0 | 10.0 | 0.00 | 0.00 | 0.00 | 46 | 1014.9 |
| 20260507010932 | 49 | 307 | 2.0 | 10.0 | 0.00 | 0.00 | 0.00 | 45 | 1015.2 |
| 20260507010427 | 50 | 203 | 1.0 | 5.0 | 0.00 | 0.00 | 0.00 | 46 | 1015.0 |
| 20260507005924 | 50 | 308 | 3.0 | 11.0 | 0.00 | 0.00 | 0.00 | 45 | 1014.9 |
| 20260507005421 | 50 | 237 | 3.0 | 10.0 | 0.00 | 0.00 | 0.00 | 44 | 1014.8 |
| 20260507004918 | 50 | 243 | 6.0 | 18.0 | 0.00 | 0.00 | 0.00 | 45 | 1014.6 |
| 20260507004414 | 50 | 261 | 4.0 | 8.0 | 0.00 | 0.00 | 0.00 | 45 | 1014.7 |
| 20260507003912 | 51 | 309 | 3.0 | 9.0 | 0.00 | 0.00 | 0.00 | 44 | 1014.8 |
| 20260507003407 | 51 | 323 | 2.0 | 7.0 | 0.00 | 0.00 | 0.00 | 44 | 1014.8 |
| 20260507002902 | 51 | 274 | 3.0 | 9.0 | 0.00 | 0.00 | 0.00 | 44 | 1014.8 |
| 20260507002359 | 51 | 320 | 2.0 | 8.0 | 0.00 | 0.00 | 0.00 | 45 | 1014.7 |
| 20260507001856 | 52 | 273 | 3.0 | 11.0 | 0.00 | 0.00 | 0.00 | 45 | 1014.4 |
| 20260507001353 | 52 | 186 | 1.0 | 10.0 | 0.00 | 0.00 | 0.00 | 44 | 1014.6 |
| 20260507000850 | 52 | 278 | 7.0 | 11.0 | 0.00 | 0.00 | 0.00 | 43 | 1014.3 |
| 20260507000345 | 53 | 271 | 5.0 | 11.0 | 0.00 | 0.00 | 0.00 | 42 | 1014.4 |
| 20260506235841 | 53 | 243 | 12.0 | 13.0 | 0.00 | 0.00 | 0.00 | 41 | 1014.3 |
| 20260506235338 | 54 | 239 | 7.0 | 10.0 | 0.00 | 0.00 | 0.00 | 42 | 1014.1 |
| 20260506234834 | 53 | 267 | 3.0 | 10.0 | 0.00 | 0.00 | 0.00 | 42 | 1014.1 |
| 20260506234332 | 53 | 266 | 8.0 | 10.0 | 0.00 | 0.00 | 0.00 | 42 | 1014.2 |
| 20260506233830 | 53 | 283 | 4.0 | 12.0 | 0.00 | 0.00 | 0.00 | 41 | 1014.0 |
| 20260506233325 | 53 | 276 | 7.0 | 11.0 | 0.00 | 0.00 | 0.00 | 42 | 1014.2 |
| 20260506232823 | 53 | 225 | 2.0 | 7.0 | 0.00 | 0.00 | 0.00 | 43 | 1014.1 |
| 20260506232318 | 53 | 260 | 11.0 | 21.0 | 0.00 | 0.00 | 0.00 | 41 | 1014.1 |
| 20260506231815 | 54 | 239 | 8.0 | 15.0 | 0.00 | 0.00 | 0.00 | 41 | 1014.3 |
| 20260506231313 | 55 | 267 | 5.0 | 12.0 | 0.00 | 0.00 | 0.00 | 41 | 1014.1 |
| 20260506230810 | 55 | 306 | 3.0 | 11.0 | 0.00 | 0.00 | 0.00 | 40 | 1014.0 |
| 20260506230307 | 54 | 271 | 6.0 | 19.0 | 0.00 | 0.00 | 0.00 | 40 | 1014.1 |
| 20260506225803 | 54 | 281 | 3.0 | 11.0 | 0.00 | 0.00 | 0.00 | 42 | 1014.1 |
| 20260506225300 | 54 | 255 | 2.0 | 6.0 | 0.00 | 0.00 | 0.00 | 42 | 1013.9 |
| 20260506224756 | 54 | 244 | 7.0 | 8.0 | 0.00 | 0.00 | 0.00 | 41 | 1013.9 |
| 20260506224254 | 54 | 279 | 7.0 | 18.0 | 0.00 | 0.00 | 0.00 | 40 | 1013.8 |
| 20260506223749 | 55 | 249 | 3.0 | 9.0 | 0.00 | 0.00 | 0.00 | 41 | 1013.6 |
| 20260506223240 | 57 | 241 | 11.0 | 15.0 | 0.00 | 0.00 | 0.00 | 38 | 1013.8 |
| 20260506222737 | 56 | 278 | 9.0 | 15.0 | 0.00 | 0.00 | 0.00 | 38 | 1013.7 |
| 20260506222232 | 56 | 243 | 8.0 | 15.0 | 0.00 | 0.00 | 0.00 | 38 | 1013.7 |
| 20260506221731 | 58 | 321 | 7.0 | 13.0 | 0.00 | 0.00 | 0.00 | 36 | 1013.9 |
| 20260506221229 | 57 | 287 | 8.0 | 17.0 | 0.00 | 0.00 | 0.00 | 37 | 1013.6 |
| 20260506220725 | 57 | 238 | 5.0 | 16.0 | 0.00 | 0.00 | 0.00 | 38 | 1013.6 |
| 20260506220220 | 57 | 271 | 5.0 | 20.0 | 0.00 | 0.00 | 0.00 | 38 | 1013.4 |
| 20260506215717 | 56 | 224 | 3.0 | 13.0 | 0.00 | 0.00 | 0.00 | 39 | 1013.6 |
| 20260506215213 | 57 | 250 | 13.0 | 17.0 | 0.00 | 0.00 | 0.00 | 38 | 1013.4 |
| 20260506214710 | 56 | 247 | 9.0 | 13.0 | 0.00 | 0.00 | 0.00 | 38 | 1013.5 |
| 20260506214207 | 58 | 339 | 3.0 | 12.0 | 0.00 | 0.00 | 0.00 | 36 | 1013.6 |
| 20260506213705 | 57 | 225 | 3.0 | 14.0 | 0.00 | 0.00 | 0.00 | 37 | 1013.5 |
| 20260506213202 | 57 | 290 | 6.0 | 17.0 | 0.00 | 0.00 | 0.00 | 37 | 1013.5 |
| 20260506212659 | 57 | 250 | 4.0 | 19.0 | 0.00 | 0.00 | 0.00 | 37 | 1013.7 |
| 20260506212155 | 57 | 240 | 8.0 | 18.0 | 0.00 | 0.00 | 0.00 | 38 | 1013.5 |
| 20260506211650 | 56 | 290 | 6.0 | 7.0 | 0.00 | 0.00 | 0.00 | 39 | 1013.5 |
| 20260506211147 | 55 | 264 | 5.0 | 15.0 | 0.00 | 0.00 | 0.00 | 38 | 1013.4 |
| 20260506210644 | 57 | 276 | 15.0 | 18.0 | 0.00 | 0.00 | 0.00 | 35 | 1013.6 |
| 20260506210140 | 58 | 267 | 4.0 | 11.0 | 0.00 | 0.00 | 0.00 | 36 | 1013.7 |
| 20260506205638 | 57 | 251 | 8.0 | 16.0 | 0.00 | 0.00 | 0.00 | 35 | 1013.5 |
| 20260506205132 | 58 | 225 | 5.0 | 14.0 | 0.00 | 0.00 | 0.00 | 38 | 1013.3 |
| 20260506204631 | 58 | 265 | 7.0 | 11.0 | 0.00 | 0.00 | 0.00 | 37 | 1013.4 |
| 20260506204127 | 57 | 283 | 6.0 | 8.0 | 0.00 | 0.00 | 0.00 | 38 | 1013.4 |
| 20260506203626 | 57 | 253 | 5.0 | 17.0 | 0.00 | 0.00 | 0.00 | 36 | 1013.4 |
| 20260506203122 | 59 | 262 | 8.0 | 9.0 | 0.00 | 0.00 | 0.00 | 37 | 1013.7 |
| 20260506202620 | 59 | 238 | 4.0 | 8.0 | 0.00 | 0.00 | 0.00 | 39 | 1013.3 |
| 20260506202116 | 57 | 232 | 4.0 | 14.0 | 0.00 | 0.00 | 0.00 | 38 | 1013.5 |
| 20260506201613 | 57 | 246 | 9.0 | 15.0 | 0.00 | 0.00 | 0.00 | 37 | 1013.7 |
| 20260506201110 | 57 | 263 | 6.0 | 14.0 | 0.00 | 0.00 | 0.00 | 36 | 1013.7 |
| 20260506200606 | 57 | 221 | 7.0 | 11.0 | 0.00 | 0.00 | 0.00 | 39 | 1013.6 |
| 20260506195559 | 57 | 264 | 7.0 | 14.0 | 0.00 | 0.00 | 0.00 | 38 | 1013.8 |
| 20260506195056 | 57 | 265 | 4.0 | 11.0 | 0.00 | 0.00 | 0.00 | 39 | 1013.8 |
| 20260506194554 | 56 | 247 | 4.0 | 15.0 | 0.00 | 0.00 | 0.00 | 40 | 1014.1 |
| 20260506194049 | 57 | 261 | 7.0 | 16.0 | 0.00 | 0.00 | 0.00 | 40 | 1014.1 |
| 20260506193548 | 57 | 281 | 4.0 | 14.0 | 0.00 | 0.00 | 0.00 | 39 | 1014.2 |
| 20260506193045 | 56 | 243 | 8.0 | 14.0 | 0.00 | 0.00 | 0.00 | 41 | 1014.2 |
| 20260506192541 | 55 | 234 | 7.0 | 20.0 | 0.00 | 0.00 | 0.00 | 42 | 1014.3 |
| 20260506192037 | 55 | 224 | 3.0 | 16.0 | 0.00 | 0.00 | 0.00 | 42 | 1014.0 |
| 20260506191534 | 56 | 243 | 5.0 | 16.0 | 0.00 | 0.00 | 0.00 | 42 | 1014.1 |
| 20260506191030 | 56 | 227 | 4.0 | 8.0 | 0.00 | 0.00 | 0.00 | 42 | 1014.1 |
| 20260506190527 | 55 | 263 | 7.0 | 11.0 | 0.00 | 0.00 | 0.00 | 40 | 1014.2 |
| 20260506190024 | 55 | 260 | 2.0 | 13.0 | 0.00 | 0.00 | 0.00 | 42 | 1014.1 |
| 20260506185521 | 55 | 264 | 6.0 | 9.0 | 0.00 | 0.00 | 0.00 | 42 | 1014.1 |
| 20260506185018 | 55 | 249 | 4.0 | 13.0 | 0.00 | 0.00 | 0.00 | 42 | 1014.4 |
| 20260506184515 | 55 | 260 | 2.0 | 15.0 | 0.00 | 0.00 | 0.00 | 42 | 1014.1 |
| 20260506184013 | 55 | 220 | 7.0 | 11.0 | 0.00 | 0.00 | 0.00 | 41 | 1014.2 |
| 20260506183508 | 55 | 240 | 5.0 | 14.0 | 0.00 | 0.00 | 0.00 | 43 | 1014.1 |
| 20260506183006 | 55 | 238 | 7.0 | 12.0 | 0.00 | 0.00 | 0.00 | 41 | 1014.1 |
| 20260506182502 | 55 | 229 | 5.0 | 11.0 | 0.00 | 0.00 | 0.00 | 41 | 1014.1 |
| 20260506181959 | 55 | 190 | 2.0 | 5.0 | 0.00 | 0.00 | 0.00 | 43 | 1014.1 |
| 20260506181457 | 55 | 208 | 5.0 | 14.0 | 0.00 | 0.00 | 0.00 | 43 | 1014.1 |
| 20260506180954 | 55 | 238 | 9.0 | 12.0 | 0.00 | 0.00 | 0.00 | 41 | 1014.2 |
| 20260506180450 | 55 | 229 | 7.0 | 16.0 | 0.00 | 0.00 | 0.00 | 42 | 1014.2 |
| 20260506175947 | 54 | 273 | 5.0 | 16.0 | 0.00 | 0.00 | 0.00 | 44 | 1014.3 |
| 20260506175444 | 56 | 237 | 9.0 | 14.0 | 0.00 | 0.00 | 0.00 | 42 | 1014.4 |
| 20260506174940 | 55 | 256 | 5.0 | 12.0 | 0.00 | 0.00 | 0.00 | 42 | 1014.3 |
| 20260506174438 | 56 | 287 | 8.0 | 13.0 | 0.00 | 0.00 | 0.00 | 40 | 1014.1 |
| 20260506173935 | 56 | 280 | 8.0 | 12.0 | 0.00 | 0.00 | 0.00 | 40 | 1014.3 |
| 20260506173432 | 55 | 293 | 6.0 | 10.0 | 0.00 | 0.00 | 0.00 | 39 | 1014.3 |
| 20260506172929 | 56 | 249 | 10.0 | 14.0 | 0.00 | 0.00 | 0.00 | 39 | 1014.6 |
| 20260506172426 | 55 | 232 | 6.0 | 17.0 | 0.00 | 0.00 | 0.00 | 40 | 1014.5 |
| 20260506171922 | 57 | 242 | 10.0 | 12.0 | 0.00 | 0.00 | 0.00 | 38 | 1014.2 |
| 20260506171420 | 55 | 255 | 4.0 | 17.0 | 0.00 | 0.00 | 0.00 | 40 | 1014.5 |
| 20260506170912 | 56 | 255 | 4.0 | 12.0 | 0.00 | 0.00 | 0.00 | 45 | 1014.5 |
| 20260506170408 | 55 | 284 | 4.0 | 11.0 | 0.00 | 0.00 | 0.00 | 39 | 1014.5 |
| 20260506165907 | 54 | 255 | 4.0 | 14.0 | 0.00 | 0.00 | 0.00 | 41 | 1014.5 |
| 20260506165405 | 55 | 279 | 6.0 | 10.0 | 0.00 | 0.00 | 0.00 | 40 | 1014.4 |
| 20260506164901 | 55 | 215 | 3.0 | 8.0 | 0.00 | 0.00 | 0.00 | 40 | 1014.5 |
| 20260506164357 | 55 | 235 | 3.0 | 8.0 | 0.00 | 0.00 | 0.00 | 42 | 1014.2 |
| 20260506163855 | 56 | 215 | 4.0 | 8.0 | 0.00 | 0.00 | 0.00 | 43 | 1014.3 |
| 20260506163349 | 54 | 215 | 2.0 | 11.0 | 0.00 | 0.00 | 0.00 | 42 | 1014.2 |
| 20260506162844 | 55 | 232 | 4.0 | 10.0 | 0.00 | 0.00 | 0.00 | 40 | 1014.3 |
| 20260506162343 | 54 | 239 | 3.0 | 7.0 | 0.00 | 0.00 | 0.00 | 40 | 1014.2 |
| 20260506161835 | 54 | 280 | 4.0 | 9.0 | 0.00 | 0.00 | 0.00 | 39 | 1014.3 |
| 20260506161332 | 54 | 14 | 1.0 | 6.0 | 0.00 | 0.00 | 0.00 | 42 | 1014.1 |
| 20260506160829 | 54 | 216 | 4.0 | 8.0 | 0.00 | 0.00 | 0.00 | 40 | 1014.4 |
| 20260506160325 | 54 | 273 | 7.0 | 15.0 | 0.00 | 0.00 | 0.00 | 41 | 1014.3 |
| 20260506155824 | 55 | 205 | 8.0 | 8.0 | 0.00 | 0.00 | 0.00 | 40 | 1014.1 |
| 20260506155320 | 54 | 303 | 5.0 | 6.0 | 0.00 | 0.00 | 0.00 | 40 | 1014.3 |
| 20260506153433 | 53 | 266 | 6.0 | 10.0 | 0.00 | 0.00 | 0.00 | 39 | 1014.3 |
| 20260506152931 | 53 | 341 | 1.0 | 10.0 | 0.00 | 0.00 | 0.00 | 40 | 1014.2 |
| 20260506152427 | 53 | 235 | 2.0 | 11.0 | 0.00 | 0.00 | 0.00 | 40 | 1014.2 |
| 20260506151926 | 53 | 244 | 3.0 | 8.0 | 0.00 | 0.00 | 0.00 | 40 | 1014.5 |
| 20260506151423 | 55 | 297 | 3.0 | 7.0 | 0.00 | 0.00 | 0.00 | 41 | 1014.4 |
| 20260506150921 | 53 | 227 | 2.0 | 5.0 | 0.00 | 0.00 | 0.00 | 43 | 1014.5 |
| 20260506150416 | 53 | 260 | 4.0 | 9.0 | 0.00 | 0.00 | 0.00 | 39 | 1014.5 |
| 20260506145914 | 54 | 268 | 3.0 | 6.0 | 0.00 | 0.00 | 0.00 | 41 | 1014.4 |
| 20260506145409 | 53 | 224 | 3.0 | 3.0 | 0.00 | 0.00 | 0.00 | 41 | 1014.3 |
| 20260506144907 | 53 | 281 | 9.0 | 9.0 | 0.00 | 0.00 | 0.00 | 41 | 1014.3 |
| 20260506144403 | 54 | 231 | 3.0 | 6.0 | 0.00 | 0.00 | 0.00 | 46 | 1014.2 |
| 20260506143902 | 53 | 271 | 0.0 | 4.0 | 0.00 | 0.00 | 0.00 | 45 | 1014.3 |
| 20260506143358 | 52 | 219 | 3.0 | 5.0 | 0.00 | 0.00 | 0.00 | 43 | 1014.2 |
| 20260506142857 | 53 | 166 | 1.0 | 3.0 | 0.00 | 0.00 | 0.00 | 45 | 1014.5 |
| 20260506142355 | 53 | 264 | 3.0 | 5.0 | 0.00 | 0.00 | 0.00 | 44 | 1014.3 |
| 20260506141852 | 53 | 184 | 0.0 | 2.0 | 0.00 | 0.00 | 0.00 | 42 | 1014.5 |
| 20260506141350 | 53 | 255 | 2.0 | 3.0 | 0.00 | 0.00 | 0.00 | 48 | 1014.4 |
| 20260506140848 | 52 | 168 | 2.0 | 4.0 | 0.00 | 0.00 | 0.00 | 48 | 1014.4 |
| 20260506140345 | 52 | 199 | 2.0 | 3.0 | 0.00 | 0.00 | 0.00 | 51 | 1014.4 |
| 20260506135842 | 52 | 49 | 1.0 | 3.0 | 0.00 | 0.00 | 0.00 | 50 | 1014.3 |
| 20260506135338 | 51 | 179 | 3.0 | 4.0 | 0.00 | 0.00 | 0.00 | 55 | 1014.5 |
| 20260506134835 | 51 | 174 | 2.0 | 4.0 | 0.00 | 0.00 | 0.00 | 53 | 1014.1 |
| 20260506134331 | 51 | 185 | 3.0 | 4.0 | 0.00 | 0.00 | 0.00 | 54 | 1013.9 |
| 20260506133829 | 50 | 140 | 3.0 | 4.0 | 0.00 | 0.00 | 0.00 | 54 | 1014.0 |
| 20260506133325 | 50 | 170 | 1.0 | 3.0 | 0.00 | 0.00 | 0.00 | 55 | 1013.9 |